Wind_Speed
20 22 22 21 21 22 24 25 25 28 28 27 27 28 27 26 26 28 30 32 34 36 39 41 43 45 46 47 49 51 53 54 56 58 58 60 60 58 56 55 56 58 60
22 24 24 25 25 26 28 30 32 33 33 31 31 33 33 31 30 31 34 36 38 40 43 45 47 48 49 50 52 54 56 58 59 59 58 54 51 49 47 49 50 52 53
24 27 27 28 29 29 32 35 36 37 37 37 36 37 38 37 36 38 40 41 43 45 48 49 50 51 51 52 55 57 59 59 58 55 50 46 44 44 44 44 45 47 49
27 29 30 31 32 33 36 38 39 40 41 42 42 41 42 42 41 41 44 46 49 52 53 53 53 52 52 54 56 57 56 53 49 45 43 43 44 44 43 43 45 48 50
31 31 32 34 35 37 39 41 41 42 44 44 42 42 43 42 42 43 46 50 54 57 56 55 54 54 55 57 57 54 49 45 42 41 41 42 43 45 47 48 49 52 53
32 32 34 36 38 39 41 42 43 45 46 46 44 43 42 42 43 46 50 55 59 60 58 57 57 58 59 57 54 48 43 41 41 42 41 42 44 47 50 52 53 54 55
39 38 38 38 39 39 41 43 45 47 49 49 47 45 44 44 45 48 54 58 61 61 59 59 60 61 58 53 47 42 41 43 43 43 44 46 49 51 54 55 55 55 55
42 40 38 37 38 39 41 44 46 50 52 52 52 49 45 44 46 50 57 61 61 59 58 60 62 59 52 46 44 44 44 45 45 46 48 50 53 56 58 59 58 56 55
35 34 33 34 36 39 42 46 50 54 56 56 58 53 46 45 48 52 58 61 60 57 58 60 58 52 47 45 46 46 46 47 48 51 53 55 58 61 62 61 59 58 56
33 35 37 37 39 43 47 52 56 59 59 59 57 49 43 46 49 54 57 57 56 57 58 56 51 47 45 45 46 47 48 51 53 55 57 60 62 63 61 59 58 58 58
35 37 38 39 42 46 49 53 57 58 57 51 44 41 43 48 51 54 54 55 56 57 56 51 47 45 44 45 47 50 53 56 58 60 62 63 62 60 58 56 55 54 53
36 37 40 43 45 48 48 48 48 47 45 42 41 44 47 49 51 53 54 55 56 54 50 47 46 46 46 49 51 54 57 60 62 63 64 62 60 56 54 52 49 47 46
40 42 43 44 45 46 44 42 41 41 42 45 48 49 49 50 52 53 53 54 52 48 45 45 46 48 50 53 56 59 61 62 64 64 62 60 56 52 49 46 43 41 40
41 41 42 43 43 44 42 40 42 45 48 50 51 50 49 50 50 50 51 49 46 44 44 45 48 52 55 58 60 62 63 64 64 63 59 55 50 45 42 40 37 36 35
40 40 42 44 46 46 45 49 51 52 51 50 49 47 47 47 47 48 47 44 44 43 44 48 52 56 59 60 61 62 62 61 58 54 50 46 42 39 36 33 32 31 29
44 46 48 50 53 54 55 56 54 51 47 46 45 45 45 46 46 45 44 43 43 45 47 51 55 57 59 60 60 58 55 54 52 49 45 41 38 34 29 27 26 25 23
51 53 57 58 57 55 54 51 47 44 43 44 44 44 44 44 43 42 43 44 45 48 51 53 56 57 58 57 54 52 51 50 48 42 35 32 29 24 21 22 22 21 18
57 59 60 58 55 52 48 44 43 42 43 42 43 44 43 41 41 43 44 46 49 51 53 54 55 55 54 50 47 44 42 40 35 30 28 26 21 18 18 19 19 17 13
58 56 55 52 49 45 42 40 40 40 41 43 43 42 41 41 42 44 46 49 50 52 53 53 53 51 48 43 39 35 33 33 31 29 26 22 18 17 16 16 15 13 11
49 48 47 46 42 38 35 35 36 38 41 41 41 40 40 41 43 46 48 49 51 51 51 51 50 46 41 38 34 32 33 33 31 28 24 20 18 16 14 13 12 12 11
39 39 37 34 30 29 30 32 35 38 39 39 38 38 39 42 44 46 47 49 49 49 49 48 45 40 37 34 32 33 34 33 29 24 19 15 13 12 10 9 11 13 13
33 32 27 25 25 26 29 32 34 35 36 36 36 38 40 42 44 45 46 46 45 45 45 43 40 36 34 31 31 32 31 27 22 17 13 10 9 7 5 9 13 14 12
24 22 21 22 24 26 28 30 31 32 32 32 35 38 41 42 43 43 43 42 42 42 42 39 36 34 30 28 27 27 23 19 16 13 9 6 4 2 8 13 14 13 11
21 21 20 21 23 25 27 27 27 27 29 32 36 38 40 40 40 39 39 39 40 40 39 36 32 28 25 23 22 20 16 14 15 13 8 4 4 8 13 15 14 13 12
18 18 19 20 22 23 22 22 23 26 29 33 36 37 38 37 37 37 38 38 38 37 35 30 26 23 21 19 18 14 11 13 16 14 9 8 10 14 16 17 17 16 15
15 16 17 18 18 17 16 19 23 27 31 34 35 35 35 36 36 37 38 37 36 35 31 26 23 20 17 16 15 12 10 12 16 14 10 11 15 19 21 22 21 18 16
Wind_Direction
306 311 307 308 316 321 324 319 322 325 324 326 331 333 331 326 322 322 324 323 320 316 313 310 309 308 306 304 303 301 298 296 294 292 290 288 287 286 285 284 284 283 282
299 304 306 308 311 314 317 315 315 316 318 320 322 328 330 328 325 326 327 325 323 320 317 314 311 309 307 305 303 300 297 294 292 292 290 287 285 284 284 284 284 284 285
290 295 300 305 306 307 310 312 311 313 315 317 319 323 327 326 324 325 326 325 322 321 318 315 312 309 307 305 303 301 298 295 293 292 290 287 287 286 283 284 286 288 289
283 289 293 298 300 302 305 306 306 308 310 312 315 318 321 322 322 323 324 323 321 320 317 314 311 309 307 306 304 303 301 298 294 291 289 289 290 289 288 289 291 292 293
280 285 288 292 295 298 299 299 300 301 303 305 310 315 317 319 320 321 320 321 321 320 316 313 311 309 308 307 305 303 302 298 293 291 291 292 293 294 294 294 295 295 295
277 281 284 289 293 295 294 293 293 295 297 298 303 310 313 315 316 316 317 317 319 319 316 313 311 308 308 307 305 301 299 296 294 293 293 295 296 297 297 297 296 295 296
272 278 283 287 290 290 288 287 289 291 292 292 296 303 307 309 311 312 314 315 316 316 314 311 309 309 309 306 302 298 295 294 294 293 295 296 296 297 297 298 297 295 295
273 277 281 284 285 284 284 286 288 288 289 290 291 295 300 302 306 309 312 313 313 312 311 310 310 311 309 303 299 297 295 294 294 294 294 295 296 298 298 298 296 295 295
274 276 279 282 283 283 285 286 286 284 285 286 286 288 293 299 304 308 310 311 311 310 310 311 312 310 305 301 299 297 296 295 294 294 295 296 297 298 298 297 296 294 294
271 274 280 283 283 283 285 286 283 280 280 282 285 288 294 300 304 306 308 308 308 310 311 311 309 307 305 302 300 298 298 297 296 296 297 297 297 297 295 294 294 294 294
275 280 285 286 285 287 289 292 292 286 283 285 288 293 299 303 305 306 307 308 309 311 311 310 308 307 306 305 303 302 300 299 298 298 298 297 296 294 293 292 292 292 293
285 289 292 293 294 295 295 298 305 303 299 299 303 307 307 307 307 307 307 309 310 311 310 309 308 308 308 307 305 302 300 299 299 298 298 298 296 293 291 291 290 291 292
291 292 294 294 295 295 294 300 311 315 315 315 314 313 311 309 307 307 308 310 311 310 309 310 310 310 309 308 305 303 302 301 300 299 298 297 295 292 290 288 288 290 291
293 291 292 294 298 300 302 310 316 317 316 314 313 311 308 306 306 307 309 309 308 307 309 311 312 311 310 308 306 305 304 303 302 301 299 298 295 292 288 286 286 289 290
289 290 295 298 301 302 307 311 314 314 314 312 310 308 307 307 308 308 308 306 306 309 312 314 314 312 310 308 307 307 306 305 304 304 304 302 297 292 285 282 283 287 287
288 293 297 299 301 304 306 308 310 312 312 311 309 308 308 309 309 308 307 307 310 314 316 315 313 311 309 308 310 310 308 306 306 307 305 301 297 290 282 279 280 285 281
288 293 297 300 301 303 305 307 309 309 309 309 308 310 311 311 310 309 309 312 315 316 316 315 312 310 310 312 312 310 308 308 309 309 307 304 300 291 279 278 281 284 272
289 292 296 299 299 300 302 304 305 306 307 309 312 313 313 311 310 312 314 315 317 317 316 313 311 311 313 314 313 312 313 316 318 317 313 307 300 290 282 280 282 276 256
288 291 293 294 294 296 299 301 303 305 308 312 314 314 313 312 314 315 316 318 318 316 314 313 313 315 317 317 316 316 319 320 318 315 312 307 300 290 285 280 272 255 227
285 285 284 283 285 291 297 300 303 307 311 312 312 312 313 315 316 317 318 318 317 315 315 316 319 320 321 320 318 317 319 319 316 312 308 303 296 290 284 272 247 222 195
275 273 272 275 283 291 296 301 306 310 311 311 311 312 314 316 318 320 320 319 319 320 321 322 324 323 323 321 320 320 321 320 316 311 305 301 296 292 279 241 206 186 168
261 265 274 283 289 296 302 307 310 311 311 311 312 313 317 321 322 322 322 323 325 326 327 327 327 326 326 325 325 325 325 324 322 317 309 302 300 293 234 186 172 161 158
269 274 279 287 297 304 308 310 311 310 310 311 314 318 323 324 325 326 327 329 331 332 331 330 329 329 330 330 330 331 334 338 341 339 331 319 310 198 163 158 152 149 154
270 276 286 298 304 308 309 311 311 310 312 316 321 324 326 327 328 331 334 335 336 335 334 332 333 335 338 338 338 341 351 3 2 360 3 27 105 135 143 142 141 143 146
272 286 298 304 306 309 312 312 311 314 320 324 326 328 329 330 332 335 339 339 337 337 337 337 340 344 346 347 349 355 4 7 11 18 38 83 112 125 130 132 134 135 134
287 296 301 304 311 316 315 315 319 324 328 329 329 330 331 333 335 337 339 340 340 341 342 343 345 348 352 358 2 2 3 8 17 30 56 96 116 122 126 128 129 129 127
Height
5850 5849 5846 5845 5844 5843 5842 5841 5840 5839 5838 5835 5832 5828 5824 5821 5817 5814 5810 5806 5802 5798 5794 5790 5785 5780 5776 5771 5766 5761 5756 5752 5747 5742 5737 5731 5725 5720 5716 5712 5709 5705 5702
5845 5843 5842 5840 5839 5838 5838 5836 5834 5833 5831 5828 5825 5821 5818 5814 5810 5806 5801 5797 5793 5789 5784 5778 5773 5767 5762 5757 5752 5747 5741 5736 5731 5726 5721 5716 5712 5707 5704 5700 5696 5691 5687
5840 5838 5837 5836 5834 5833 5832 5829 5827 5824 5821 5819 5816 5812 5809 5805 5801 5796 5791 5787 5782 5777 5772 5766 5760 5755 5749 5744 5738 5732 5725 5720 5715 5709 5705 5701 5698 5696 5693 5689 5684 5678 5673
5835 5833 5832 5830 5828 5827 5825 5822 5819 5816 5814 5811 5808 5804 5800 5796 5791 5786 5782 5777 5772 5766 5760 5754 5747 5741 5735 5729 5723 5716 5709 5703 5699 5695 5691 5688 5685 5682 5679 5677 5672 5665 5660
5829 5827 5826 5824 5823 5821 5818 5815 5812 5810 5807 5803 5799 5795 5791 5786 5781 5776 5771 5766 5760 5753 5747 5740 5734 5727 5720 5714 5707 5700 5694 5689 5685 5682 5679 5676 5672 5668 5664 5661 5657 5651 5645
5822 5820 5818 5817 5816 5814 5811 5808 5804 5801 5797 5793 5789 5785 5781 5776 5771 5766 5760 5754 5747 5740 5733 5727 5720 5713 5706 5698 5691 5686 5681 5677 5673 5669 5666 5663 5659 5654 5650 5646 5643 5637 5631
5814 5813 5812 5811 5809 5806 5802 5799 5795 5791 5787 5783 5780 5776 5772 5766 5761 5756 5750 5742 5734 5727 5721 5714 5706 5698 5691 5684 5678 5673 5669 5665 5661 5657 5653 5648 5644 5640 5636 5631 5627 5623 5617
5805 5805 5804 5802 5799 5796 5792 5789 5785 5782 5777 5773 5769 5766 5762 5757 5751 5745 5739 5731 5723 5716 5708 5700 5692 5684 5677 5671 5667 5663 5658 5653 5649 5645 5640 5635 5630 5625 5620 5614 5610 5607 5603
5795 5795 5794 5792 5789 5786 5783 5779 5776 5772 5767 5763 5759 5755 5751 5745 5739 5733 5726 5719 5712 5704 5696 5687 5679 5671 5664 5659 5655 5651 5647 5642 5637 5632 5627 5620 5614 5608 5602 5597 5592 5590 5587
5787 5786 5785 5783 5781 5778 5774 5770 5765 5760 5755 5751 5747 5743 5740 5735 5728 5721 5715 5708 5701 5693 5684 5676 5668 5661 5654 5649 5644 5640 5635 5630 5624 5618 5611 5604 5597 5591 5585 5579 5575 5571 5569
5779 5779 5778 5776 5773 5770 5765 5760 5754 5748 5744 5741 5738 5734 5731 5725 5718 5711 5704 5697 5689 5681 5673 5665 5658 5650 5644 5638 5633 5627 5621 5615 5608 5601 5594 5588 5580 5574 5568 5563 5559 5555 5551
5773 5772 5770 5767 5763 5759 5754 5750 5746 5742 5738 5734 5730 5726 5721 5715 5708 5700 5693 5685 5677 5669 5661 5654 5647 5640 5633 5627 5620 5614 5607 5599 5592 5584 5576 5569 5563 5557 5552 5548 5544 5541 5537
5765 5762 5759 5756 5753 5748 5743 5740 5737 5734 5730 5726 5721 5716 5709 5703 5695 5688 5680 5672 5665 5657 5649 5643 5636 5629 5622 5614 5606 5599 5591 5583 5574 5566 5559 5552 5547 5543 5538 5534 5532 5529 5525
5755 5752 5749 5747 5743 5739 5734 5731 5728 5724 5721 5716 5709 5703 5696 5689 5682 5675 5668 5660 5653 5645 5637 5630 5623 5616 5608 5600 5591 5583 5574 5565 5556 5547 5541 5536 5531 5528 5524 5522 5520 5518 5515
5747 5743 5740 5737 5734 5730 5726 5723 5719 5715 5710 5704 5697 5690 5684 5677 5671 5664 5657 5650 5642 5634 5625 5617 5610 5603 5594 5585 5576 5567 5558 5548 5539 5532 5526 5521 5517 5514 5512 5511 5510 5509 5506
5737 5734 5731 5728 5725 5722 5718 5714 5709 5703 5697 5692 5686 5680 5673 5666 5660 5654 5647 5640 5631 5622 5613 5605 5598 5590 5581 5571 5561 5552 5542 5533 5527 5521 5515 5509 5505 5502 5501 5502 5501 5500 5499
5727 5724 5722 5719 5716 5712 5707 5703 5698 5692 5687 5682 5676 5670 5663 5656 5650 5644 5637 5629 5620 5611 5602 5594 5586 5577 5567 5557 5548 5538 5529 5522 5515 5509 5504 5500 5495 5494 5494 5495 5495 5494 5493
5717 5714 5712 5709 5705 5702 5697 5693 5689 5683 5678 5672 5666 5659 5653 5647 5641 5634 5626 5618 5609 5599 5591 5583 5574 5565 5555 5545 5536 5527 5519 5512 5506 5501 5497 5493 5490 5489 5489 5489 5489 5489 5489
5706 5704 5702 5699 5695 5692 5689 5685 5680 5674 5669 5663 5657 5651 5645 5639 5632 5624 5616 5607 5598 5589 5580 5572 5563 5553 5544 5535 5526 5519 5512 5506 5500 5496 5491 5488 5486 5485 5485 5485 5485 5485 5487
5697 5695 5692 5689 5687 5684 5681 5677 5671 5666 5661 5655 5649 5643 5636 5630 5623 5615 5606 5596 5588 5579 5570 5560 5551 5542 5533 5525 5518 5512 5506 5500 5494 5489 5486 5483 5481 5480 5480 5480 5481 5483 5485
5689 5686 5684 5681 5679 5677 5673 5669 5664 5659 5654 5648 5641 5635 5629 5622 5613 5605 5596 5587 5578 5568 5559 5550 5541 5533 5526 5518 5512 5506 5499 5493 5487 5483 5480 5478 5477 5476 5476 5476 5478 5481 5484
5680 5678 5676 5675 5673 5670 5667 5663 5658 5652 5647 5641 5634 5628 5621 5613 5604 5595 5586 5578 5569 5559 5549 5540 5532 5525 5519 5513 5506 5500 5493 5487 5482 5478 5475 5474 5473 5473 5473 5475 5478 5482 5485
5674 5673 5672 5670 5667 5664 5660 5656 5650 5645 5640 5634 5628 5621 5613 5604 5596 5588 5579 5570 5561 5552 5543 5534 5527 5520 5513 5508 5502 5496 5490 5484 5479 5475 5473 5472 5471 5472 5473 5476 5480 5484 5487
5669 5669 5667 5664 5661 5658 5654 5649 5644 5640 5635 5629 5622 5614 5606 5597 5590 5581 5573 5564 5555 5546 5538 5529 5522 5515 5510 5505 5499 5494 5489 5485 5480 5476 5473 5472 5472 5473 5476 5479 5483 5485 5488
5664 5664 5662 5659 5656 5652 5647 5643 5640 5636 5630 5623 5615 5607 5599 5592 5584 5576 5567 5559 5550 5542 5534 5526 5519 5513 5508 5503 5498 5494 5490 5486 5482 5478 5476 5475 5476 5477 5480 5483 5486 5489 5491
5659 5659 5657 5654 5650 5646 5644 5641 5636 5631 5624 5617 5610 5602 5595 5587 5578 5570 5562 5554 5546 5538 5529 5522 5516 5511 5506 5502 5498 5495 5491 5488 5484 5481 5479 5479 5480 5482 5484 5487 5490 5493 5496